ZHONGXING-1E

Last updated on Wed Oct 15 2025 00:02:49 GMT+0000 (Coordinated Universal Time)

1 53813U 22112A 25286.78377889 -.00000163 00000+0 00000+0 0 9997 2 53813 0.0631 67.0813 0004534 196.0617 123.0191 1.00270298 11371
UTC large
Height (km)
Speed (km/s)
/
Latitude / Longitude
Inclination (degrees)
Orbital Period (minutes)
Azimuth
Elevation
Range (km)
Doppler Factor

Next 0 passes for location: London (51.5072 / 0.1276)

Sorry there are no passes over London.